Location: Newark
(20.0000°S, 47.0000°E)
Time: 16:19:55
(UTC+00:00)

N. Korean satellite - Pass Details

Date: 22 March 2019
Orbit: 457 x 508 km, 97.2° (Epoch: 21 April)

Event Time Altitude Azimuth Distance (km) Brightness Sun altitude
Rises 01:47:40 0° 39° (NE) 2,569 10.7 -16.9°
Reaches altitude 10° 01:50:05 10° 56° (NE) 1,702 10.0 -16.3°
Maximum altitude 01:52:53 21° 105° (ESE) 1,187 9.5 -15.7°
Drops below altitude 10° 01:55:43 10° 155° (SSE) 1,732 9.8 -15.0°
Sets 01:58:12 0° 171° (S) 2,629 10.5 -14.5°
